Total_Precipitation_Accumulation
1.11 1.08 0.93 0.89 0.92 1.06 1.28 1.52 1.56 1.75 1.81 1.60 1.28 1.10 1.04 0.91 0.75 0.61 0.54 0.69 0.97 0.96 0.88 0.89 0.86 0.84 0.82 0.74 0.67 0.66 0.62 0.58 0.51 0.40 0.25 0.16 0.25 0.27 0.18 0.10 0.03 0.01 0.01
1.12 1.07 1.03 1.06 1.06 1.02 1.11 1.44 1.63 1.75 1.67 1.42 1.08 0.93 0.89 0.87 0.78 0.71 0.58 0.64 0.85 0.79 0.72 0.80 0.88 0.93 0.94 0.85 0.72 0.66 0.61 0.56 0.49 0.40 0.34 0.29 0.19 0.20 0.25 0.19 0.10 0.04 0.01
0.92 0.95 0.93 0.90 0.93 0.94 0.94 1.04 1.19 1.31 1.23 1.08 0.93 0.90 0.88 0.84 0.75 0.71 0.66 0.62 0.64 0.73 0.67 0.65 0.71 0.80 0.91 0.99 0.89 0.74 0.60 0.52 0.47 0.42 0.34 0.26 0.20 0.13 0.10 0.14 0.17 0.14 0.05
0.57 0.59 0.58 0.55 0.57 0.56 0.59 0.67 0.74 0.82 0.85 0.88 0.91 0.90 0.85 0.86 0.78 0.79 0.73 0.65 0.64 0.64 0.73 0.69 0.67 0.68 0.75 0.86 0.90 0.89 0.75 0.58 0.49 0.47 0.40 0.27 0.19 0.16 0.10 0.10 0.15 0.18 0.13
0.40 0.43 0.41 0.40 0.38 0.36 0.36 0.38 0.45 0.54 0.61 0.66 0.66 0.65 0.63 0.59 0.55 0.55 0.58 0.48 0.46 0.45 0.52 0.62 0.66 0.64 0.70 0.81 0.97 1.07 1.00 0.77 0.58 0.49 0.50 0.40 0.30 0.22 0.16 0.14 0.13 0.15 0.14
0.33 0.36 0.33 0.32 0.29 0.27 0.28 0.33 0.36 0.39 0.40 0.43 0.38 0.36 0.40 0.33 0.31 0.28 0.27 0.27 0.27 0.26 0.31 0.43 0.47 0.45 0.54 0.68 0.83 0.96 1.00 0.92 0.72 0.55 0.58 0.61 0.57 0.41 0.30 0.23 0.16 0.15 0.13
0.28 0.34 0.29 0.31 0.29 0.23 0.23 0.25 0.28 0.29 0.27 0.27 0.26 0.21 0.17 0.16 0.16 0.13 0.12 0.15 0.19 0.21 0.23 0.32 0.34 0.31 0.31 0.43 0.49 0.60 0.74 0.86 0.85 0.66 0.59 0.64 0.65 0.53 0.35 0.32 0.32 0.23 0.18
0.17 0.23 0.30 0.25 0.25 0.25 0.24 0.23 0.25 0.23 0.21 0.23 0.25 0.21 0.13 0.10 0.10 0.08 0.12 0.12 0.14 0.23 0.27 0.28 0.25 0.23 0.23 0.23 0.18 0.23 0.40 0.57 0.72 0.70 0.61 0.57 0.63 0.55 0.37 0.30 0.32 0.33 0.28
0.09 0.14 0.21 0.24 0.27 0.24 0.27 0.31 0.28 0.25 0.19 0.19 0.23 0.25 0.16 0.08 0.08 0.09 0.11 0.12 0.13 0.19 0.23 0.28 0.27 0.24 0.25 0.27 0.26 0.20 0.25 0.30 0.48 0.67 0.69 0.60 0.59 0.55 0.50 0.44 0.36 0.29 0.26
0.07 0.08 0.10 0.15 0.22 0.26 0.33 0.25 0.28 0.28 0.23 0.18 0.19 0.20 0.17 0.15 0.13 0.10 0.12 0.11 0.15 0.19 0.18 0.18 0.22 0.24 0.23 0.18 0.18 0.14 0.11 0.15 0.31 0.53 0.64 0.66 0.62 0.63 0.61 0.57 0.55 0.46 0.33
0.11 0.12 0.12 0.11 0.12 0.19 0.26 0.29 0.35 0.31 0.30 0.26 0.20 0.18 0.18 0.16 0.14 0.10 0.09 0.10 0.12 0.10 0.10 0.12 0.16 0.23 0.18 0.12 0.16 0.14 0.12 0.18 0.26 0.37 0.47 0.56 0.58 0.57 0.56 0.61 0.76 0.85 0.74
0.19 0.19 0.20 0.20 0.19 0.17 0.17 0.19 0.23 0.29 0.33 0.33 0.25 0.20 0.22 0.20 0.15 0.12 0.07 0.07 0.12 0.09 0.09 0.11 0.17 0.22 0.19 0.21 0.23 0.18 0.17 0.21 0.28 0.37 0.40 0.43 0.43 0.40 0.37 0.41 0.58 0.84 0.99
0.23 0.23 0.22 0.24 0.27 0.27 0.24 0.20 0.15 0.20 0.28 0.31 0.28 0.25 0.20 0.15 0.17 0.19 0.14 0.08 0.08 0.07 0.10 0.10 0.15 0.16 0.13 0.17 0.24 0.30 0.25 0.24 0.25 0.29 0.34 0.36 0.37 0.38 0.35 0.34 0.40 0.56 0.76
0.27 0.23 0.21 0.22 0.26 0.29 0.31 0.28 0.22 0.20 0.22 0.26 0.29 0.33 0.28 0.14 0.14 0.19 0.19 0.18 0.15 0.11 0.14 0.14 0.21 0.20 0.15 0.16 0.19 0.31 0.29 0.26 0.19 0.17 0.19 0.19 0.22 0.27 0.30 0.31 0.33 0.39 0.49
0.30 0.24 0.20 0.19 0.21 0.25 0.29 0.31 0.29 0.29 0.26 0.23 0.27 0.34 0.33 0.23 0.16 0.15 0.20 0.25 0.27 0.22 0.17 0.20 0.30 0.32 0.23 0.20 0.18 0.22 0.27 0.24 0.19 0.15 0.11 0.10 0.10 0.11 0.12 0.15 0.21 0.25 0.30
0.14 0.15 0.15 0.15 0.16 0.18 0.22 0.27 0.33 0.38 0.40 0.36 0.32 0.34 0.35 0.34 0.31 0.24 0.23 0.26 0.29 0.29 0.26 0.23 0.34 0.42 0.43 0.30 0.28 0.31 0.25 0.21 0.18 0.16 0.11 0.09 0.09 0.09 0.08 0.07 0.11 0.15 0.18
0.02 0.03 0.05 0.07 0.09 0.10 0.14 0.18 0.25 0.36 0.49 0.57 0.55 0.48 0.42 0.43 0.42 0.36 0.33 0.29 0.29 0.33 0.36 0.38 0.46 0.56 0.59 0.46 0.41 0.35 0.24 0.19 0.16 0.18 0.15 0.11 0.08 0.07 0.08 0.06 0.06 0.07 0.09
0.00 0.01 0.01 0.02 0.02 0.03 0.06 0.09 0.15 0.22 0.34 0.50 0.65 0.69 0.60 0.53 0.47 0.41 0.37 0.35 0.34 0.37 0.43 0.52 0.59 0.65 0.64 0.62 0.55 0.38 0.24 0.18 0.14 0.16 0.15 0.12 0.10 0.07 0.07 0.07 0.06 0.04 0.04
0.01 0.01 0.01 0.01 0.01 0.03 0.04 0.06 0.07 0.09 0.14 0.23 0.39 0.60 0.69 0.66 0.54 0.47 0.41 0.38 0.38 0.39 0.41 0.46 0.57 0.72 0.82 0.79 0.56 0.33 0.23 0.19 0.14 0.14 0.14 0.12 0.10 0.07 0.06 0.05 0.05 0.04 0.03
0.02 0.02 0.02 0.02 0.03 0.03 0.04 0.06 0.07 0.07 0.07 0.09 0.16 0.29 0.47 0.64 0.62 0.55 0.47 0.41 0.42 0.45 0.45 0.47 0.57 0.75 0.91 0.94 0.67 0.38 0.25 0.19 0.14 0.10 0.10 0.09 0.08 0.06 0.04 0.03 0.02 0.03 0.02
0.03 0.04 0.05 0.06 0.06 0.06 0.04 0.06 0.11 0.12 0.14 0.13 0.11 0.13 0.19 0.34 0.49 0.56 0.52 0.47 0.45 0.46 0.49 0.50 0.57 0.74 0.89 0.95 0.69 0.44 0.28 0.21 0.15 0.10 0.06 0.05 0.04 0.02 0.02 0.03 0.02 0.02 0.02
0.08 0.10 0.10 0.11 0.11 0.07 0.06 0.07 0.10 0.14 0.21 0.26 0.23 0.19 0.15 0.15 0.24 0.37 0.46 0.49 0.48 0.45 0.48 0.50 0.56 0.70 0.82 0.86 0.85 0.64 0.40 0.22 0.16 0.10 0.05 0.06 0.03 0.03 0.02 0.01 0.03 0.02 0.02
0.13 0.16 0.15 0.15 0.15 0.14 0.12 0.10 0.07 0.14 0.23 0.30 0.35 0.33 0.20 0.11 0.15 0.20 0.28 0.36 0.39 0.38 0.39 0.45 0.53 0.65 0.90 1.05 1.08 0.78 0.53 0.38 0.24 0.17 0.07 0.05 0.04 0.02 0.02 0.03 0.05 0.03 0.02
0.20 0.20 0.19 0.19 0.20 0.18 0.16 0.12 0.10 0.17 0.24 0.24 0.31 0.37 0.29 0.23 0.22 0.24 0.22 0.21 0.24 0.25 0.25 0.28 0.39 0.57 0.82 1.13 1.25 1.17 0.97 0.70 0.50 0.30 0.12 0.07 0.04 0.03 0.03 0.03 0.06 0.06 0.04
0.22 0.21 0.21 0.23 0.25 0.25 0.22 0.15 0.13 0.23 0.29 0.26 0.27 0.30 0.33 0.29 0.23 0.22 0.26 0.20 0.18 0.18 0.20 0.23 0.31 0.50 0.69 0.93 1.24 1.34 1.18 0.86 0.62 0.35 0.12 0.06 0.04 0.03 0.04 0.04 0.05 0.08 0.06
0.26 0.24 0.22 0.25 0.29 0.30 0.27 0.16 0.13 0.24 0.32 0.31 0.32 0.36 0.42 0.40 0.29 0.20 0.24 0.24 0.18 0.15 0.16 0.17 0.22 0.33 0.48 0.66 0.94 1.06 0.96 0.78 0.55 0.34 0.13 0.05 0.03 0.03 0.04 0.03 0.02 0.03 0.04